SCP
0 0 0 0 0 0 0 0 0 1 1 2 2 2 1 2 2 3 5 6 5 5 5 5 4 3 3 3 3 3 4 5 6 8 8 8 7 6 5 4 4 4 4 4
0 0 0 0 0 0 0 0 1 1 1 1 2 2 1 2 2 3 7 9 7 5 5 4 3 2 3 3 3 3 4 4 5 7 8 8 7 7 6 5 4 4 3 4
0 0 0 0 0 0 0 1 1 1 1 2 2 2 1 2 2 4 7 9 8 6 6 6 4 3 2 2 3 3 4 4 5 6 6 7 7 7 6 5 5 4 4 4
0 0 0 0 0 1 1 1 1 1 2 2 2 2 2 3 3 4 5 6 6 5 6 7 6 4 3 2 3 3 4 4 4 5 5 5 6 6 6 5 5 5 5 4
0 0 0 0 1 1 1 1 1 2 2 2 3 3 4 4 4 4 4 4 4 4 4 5 5 4 3 3 3 4 4 4 4 4 4 4 4 5 5 5 5 5 5 5
0 0 1 1 2 2 1 1 1 2 2 2 2 3 4 5 6 5 5 4 3 3 4 4 5 4 4 4 4 4 5 5 5 5 4 4 4 4 4 4 4 4 4 5
0 1 1 1 2 2 2 1 1 2 2 2 2 3 4 6 6 6 5 4 3 4 4 5 6 5 4 4 4 5 6 7 7 6 5 4 4 4 4 4 4 4 3 3
0 1 1 2 2 2 2 2 2 3 3 3 4 4 6 7 8 7 5 4 4 4 5 6 6 6 5 4 5 5 6 7 8 8 6 5 4 4 5 5 5 4 3 3
1 1 2 2 2 2 2 3 4 5 6 6 6 6 7 8 9 9 7 5 5 5 6 6 6 6 5 5 5 5 6 6 7 8 7 4 4 4 5 5 5 5 4 4
1 1 2 2 2 2 2 3 4 5 7 7 7 7 7 7 8 9 8 7 7 7 7 6 6 5 5 5 5 5 5 7 9 9 7 5 4 4 4 4 5 5 4 4
1 1 2 3 2 2 2 3 4 4 5 5 6 7 8 8 8 9 9 9 9 8 7 6 6 5 5 5 5 6 7 9 11 12 9 6 5 4 3 2 3 3 3 4
1 1 2 2 2 2 2 2 3 4 4 4 6 9 12 12 11 10 10 10 10 9 8 7 7 6 5 5 6 7 9 12 14 13 10 7 5 4 3 2 1 1 2 2
1 1 1 1 2 2 2 2 3 4 4 4 5 8 12 14 13 12 11 11 11 10 10 9 7 6 6 6 8 10 12 15 16 13 9 6 4 3 2 2 1 1 1 1
2 2 1 1 1 2 2 3 3 4 4 4 4 6 9 10 11 12 12 11 10 10 10 8 7 5 6 7 9 11 13 14 13 11 8 5 3 2 2 2 2 1 1 1
2 2 1 1 1 2 4 4 5 5 5 5 4 4 4 6 8 11 12 12 10 8 7 6 5 4 4 6 7 9 9 9 8 6 4 3 2 2 2 1 1 1 1 1
1 1 1 1 1 2 4 5 5 5 5 5 4 3 2 3 5 8 11 12 10 7 6 5 4 3 3 3 4 5 5 4 3 2 2 2 2 1 1 1 0 0 0 0
1 1 1 1 1 1 3 5 5 4 4 3 3 2 2 3 4 6 9 10 8 7 6 5 4 3 2 3 3 4 3 2 1 1 1 1 1 1 0 0 0 0 0 0
1 1 1 1 1 1 1 2 3 3 2 2 2 2 2 3 3 5 8 8 7 6 5 4 4 3 2 3 3 4 3 1 1 0 0 0 0 0 0 0 0 0 0 0
1 0 1 1 1 1 1 1 2 2 2 1 1 2 2 3 4 7 9 8 6 5 5 4 3 2 2 2 3 3 2 1 0 0 0 0 0 0 0 0 0 0 0 0
0 1 1 1 1 1 1 1 1 1 1 2 2 2 2 2 3 6 9 8 6 5 4 3 3 2 2 2 2 3 2 1 0 0 0 0 0 0 0 0 0 0 0 0
1 1 0 0 1 1 2 2 1 1 1 2 2 2 1 1 2 4 6 7 5 4 4 3 2 2 1 1 2 2 1 1 0 0 0 0 0 0 0 0 0 0 0 0
1 1 1 1 1 1 2 2 1 1 1 1 1 1 1 1 1 2 4 5 4 4 3 3 2 1 1 1 1 1 1 0 0 0 0 0 0 0 0 0 0 0 0 0
1 1 1 1 1 2 2 1 1 1 1 1 1 1 1 1 1 1 2 2 2 3 3 3 2 1 0 0 0 0 0 0 0 0 0 0 0 0 0 0 0 0 0 0
1 1 1 1 1 1 1 1 1 1 1 1 1 1 1 1 1 1 1 1 1 2 2 2 1 0 0 0 0 0 0 0 0 0 0 0 0 0 0 0 0 0 0 0
1 1 1 1 1 1 1 1 1 1 1 1 1 1 2 2 1 1 0 0 0 1 1 1 0 0 0 0 0 0 0 0 0 0 0 0 0 0 0 0 0 0 0 0
1 1 1 1 1 1 0 0 0 0 1 1 1 1 2 2 2 1 0 0 0 0 1 0 0 0 0 0 0 0 0 0 0 0 0 0 0 0 0 0 0 0 0 0
1 1 1 1 0 0 0 0 0 0 0 1 1 1 1 2 2 1 0 0 0 0 0 0 0 0 0 0 0 0 0 0 0 0 0 0 0 0 0 0 0 0 0 0
Wind_Speed
5 5 2 2 3 2 3 6 7 7 7 8 7 7 6 5 5 6 6 6 6 6 5 5 5 4 4 4 4 4 3 4 4 3 3 3 3 3 3 3 3 3 3 2
2 2 1 2 2 1 2 3 5 4 3 5 4 3 4 5 7 7 7 7 7 6 6 6 5 5 4 4 4 4 3 4 4 3 3 3 3 3 2 3 3 2 3 3
3 4 2 3 3 2 2 2 6 6 6 5 4 4 6 6 7 8 7 6 7 6 6 6 5 5 5 4 4 3 3 3 3 3 3 4 4 3 3 3 3 3 3 3
2 1 3 6 3 4 4 1 2 4 5 6 6 4 3 4 6 6 6 6 5 5 5 4 4 3 3 3 3 3 2 2 2 2 3 3 3 3 4 3 3 3 3 3
3 2 3 4 2 2 4 0 2 6 6 5 5 4 2 1 4 6 6 6 6 5 5 5 4 4 4 3 3 2 2 2 2 3 3 3 3 4 3 3 3 3 3 3
3 3 4 5 4 1 6 0 1 4 6 6 5 3 3 2 4 4 5 5 5 4 4 4 4 4 4 3 2 2 2 2 2 2 3 3 4 3 2 2 3 3 3 3
3 3 4 5 3 3 3 6 3 3 4 5 4 5 5 3 4 5 5 5 5 5 4 3 3 4 4 3 2 2 2 2 1 2 2 3 3 2 2 2 1 2 2 3
3 2 5 4 2 3 5 3 3 3 4 4 4 4 3 4 4 5 4 4 5 4 3 2 3 4 3 2 2 1 1 1 1 2 2 1 1 1 1 1 1 2 2 3
4 5 5 2 2 3 4 4 3 3 4 6 5 4 5 4 3 3 4 3 4 4 3 1 2 3 3 2 1 0 0 0 1 1 1 1 1 1 1 1 1 2 2 2
2 2 2 2 4 3 4 4 2 3 5 6 6 6 5 4 3 2 2 3 3 4 3 1 1 2 2 2 1 1 1 0 1 0 1 1 1 1 1 1 1 2 2 3
1 2 3 4 3 2 2 4 5 5 5 5 6 5 5 4 3 2 2 2 3 4 3 3 2 2 2 2 2 1 1 0 1 0 1 1 1 1 2 3 4 3 3 3
4 4 2 4 2 1 2 4 5 5 4 3 4 4 4 4 3 3 2 2 2 2 2 2 2 2 2 2 2 2 1 1 1 1 1 1 1 2 3 3 5 5 5 4
4 3 3 3 1 1 2 2 4 5 5 3 2 3 4 3 2 2 2 2 3 3 2 2 2 2 3 3 3 3 2 2 2 2 2 2 2 2 2 4 4 4 5 5
2 1 1 2 1 1 2 2 3 4 3 4 2 2 3 3 2 2 2 2 2 2 1 2 2 3 3 2 3 3 2 2 2 2 2 2 2 2 2 2 3 3 4 5
2 2 2 1 1 2 3 3 4 3 2 2 2 2 2 2 2 2 2 1 1 1 1 2 2 3 3 2 3 2 2 2 2 2 2 2 2 2 2 2 2 3 3 3
1 1 1 1 1 2 3 3 3 2 2 2 2 2 2 2 2 2 1 2 2 2 2 1 2 3 2 2 2 2 2 3 2 2 2 2 2 2 2 2 2 2 2 2
3 2 1 1 1 2 2 1 2 2 2 2 2 2 2 1 1 1 1 2 2 3 2 2 3 2 1 2 3 2 2 2 2 2 2 2 2 2 2 2 2 2 3 3
4 3 3 3 3 2 2 1 1 1 2 2 2 1 1 1 2 3 3 2 1 0 1 2 2 1 1 2 2 1 1 1 1 2 2 2 2 2 1 2 2 2 2 3
3 2 2 2 2 3 2 2 2 2 2 2 3 3 2 3 4 3 2 1 1 2 3 3 2 1 2 3 2 1 1 2 2 2 2 2 2 1 1 2 2 2 2 2
2 2 2 1 1 2 2 1 1 1 1 2 2 2 1 1 1 2 2 1 3 3 3 3 2 2 2 3 2 1 2 2 2 2 2 2 2 2 2 2 2 2 2 1
2 1 1 1 1 1 1 1 1 1 1 2 2 2 2 2 2 2 2 2 3 2 2 2 2 2 2 2 3 2 2 2 2 2 2 2 2 2 2 2 2 1 1 1
1 1 1 1 1 1 1 1 1 1 1 1 1 1 1 1 2 1 2 3 3 2 1 1 1 2 2 2 2 2 2 2 2 2 2 2 2 2 2 2 2 2 2 2
1 0 1 1 1 0 1 1 0 1 1 1 1 1 1 2 2 1 2 2 2 2 1 2 3 3 3 2 2 2 2 2 2 1 1 1 2 2 2 2 2 2 2 2
1 0 0 0 1 2 1 2 1 0 1 1 1 2 2 1 1 1 2 2 1 1 1 2 3 3 2 1 2 2 2 2 1 1 1 1 1 1 1 1 1 2 2 2
1 1 1 1 1 0 1 1 1 1 0 0 1 1 1 1 1 2 1 0 0 0 1 2 2 2 1 1 1 1 1 1 0 1 1 1 1 1 1 1 2 1 1 1
1 1 1 1 1 1 1 1 0 1 0 0 1 1 1 1 1 0 0 0 0 0 1 1 1 0 0 1 1 1 1 1 0 0 0 0 1 1 1 2 2 1 1 1
0 0 0 1 0 0 0 1 1 0 0 0 1 1 1 0 0 1 1 1 1 1 0 0 0 0 0 1 1 1 1 1 0 0 0 0 1 1 1 2 1 1 1 1
Wind_Direction
219 227 202 225 231 203 166 177 177 212 205 216 203 185 182 170 159 159 164 167 169 174 180 178 174 165 165 167 166 165 170 184 200 206 201 202 207 214 215 213 215 217 225 238
298 290 0 310 271 195 166 172 168 164 227 225 190 149 160 170 167 170 174 169 172 170 168 171 170 166 165 171 177 169 172 196 203 195 198 209 215 215 215 225 230 225 228 232
263 291 21 300 261 196 167 190 165 190 207 175 155 164 180 181 171 170 175 168 164 165 163 168 177 172 170 177 169 168 184 198 198 197 204 217 224 217 217 225 233 239 238 233
187 46 233 248 236 141 129 172 171 156 169 162 165 178 177 167 164 172 175 167 160 157 157 159 157 164 166 154 150 160 176 197 205 197 212 220 217 221 224 224 229 237 240 236
133 174 259 292 307 151 131 193 179 152 160 153 145 96 21 188 156 166 171 162 161 161 154 145 148 165 148 146 148 156 181 207 216 207 216 220 222 230 226 221 236 240 239 233
138 157 217 249 280 163 107 231 277 143 151 154 120 119 247 219 152 147 145 147 143 135 117 134 161 156 144 152 154 183 204 221 230 215 216 223 224 229 232 222 233 242 251 243
156 186 248 263 293 64 133 224 230 148 143 138 151 186 208 171 141 141 136 134 127 121 128 147 150 136 137 146 188 211 216 231 242 233 229 225 226 233 227 223 232 250 263 266
137 157 247 288 46 142 201 192 147 131 134 123 131 132 127 125 128 124 120 117 121 117 120 131 130 126 135 187 226 223 210 235 248 236 235 238 218 253 231 209 224 255 271 281
174 205 242 276 152 168 146 132 138 133 130 125 122 125 120 117 117 124 131 131 126 123 118 104 115 128 142 227 238 150 74 287 269 267 258 235 182 195 211 199 229 257 255 262
47 329 345 28 70 75 103 113 121 123 129 128 131 132 127 126 121 121 134 131 125 123 127 138 149 148 181 208 176 116 103 334 294 281 295 292 244 215 206 223 248 261 263 265
356 294 11 8 31 55 70 91 91 88 99 125 130 132 135 135 140 142 143 141 138 145 164 186 191 199 212 192 149 138 154 277 292 280 222 252 261 242 233 231 224 229 245 247
231 243 217 252 272 27 86 107 113 105 85 86 129 143 141 148 159 157 151 136 135 154 177 201 197 213 228 200 169 171 201 238 251 253 250 256 287 317 307 273 264 245 240 242
215 239 238 249 263 85 85 97 111 116 121 111 98 142 142 150 156 146 143 141 159 180 197 204 208 229 237 211 184 185 204 221 232 236 232 238 244 251 290 311 299 272 263 260
187 92 340 306 304 62 102 109 108 108 118 131 120 128 121 122 133 149 178 189 179 174 206 215 215 237 240 203 176 187 202 218 229 232 224 225 235 242 236 252 291 303 293 275
240 213 211 249 14 65 79 87 93 91 99 108 124 120 115 129 163 190 198 176 155 158 214 209 215 240 238 194 184 201 212 234 237 236 226 223 228 233 244 249 259 279 302 304
198 148 140 154 139 93 89 95 103 114 130 130 136 163 166 164 175 181 178 158 164 196 214 203 233 251 231 189 193 214 228 240 232 227 225 231 233 228 237 246 255 264 270 279
138 158 168 202 165 139 139 154 168 189 169 158 185 186 153 121 120 204 226 199 187 191 189 207 240 254 233 200 199 217 229 242 237 229 229 228 233 234 236 239 248 255 261 260
159 179 189 183 176 171 170 161 169 175 184 181 157 130 121 185 214 223 230 201 164 332 263 232 230 261 264 221 207 208 216 233 231 231 235 240 238 231 234 239 252 258 266 266
129 148 162 125 153 164 176 188 197 190 183 157 142 159 191 209 198 200 198 163 177 268 279 271 252 248 265 260 242 215 211 222 239 244 231 243 246 236 236 240 252 270 270 269
106 114 106 99 120 145 167 194 193 139 138 129 144 156 155 245 203 176 176 203 228 231 243 257 258 261 263 266 258 235 228 227 229 230 227 228 229 233 241 247 250 260 271 267
104 122 146 133 113 117 142 150 131 146 166 153 170 191 189 218 210 189 186 248 267 255 240 245 243 247 253 265 263 256 250 246 233 225 222 226 229 236 242 245 250 255 258 260
80 42 52 94 88 61 27 83 136 162 149 164 192 178 147 211 239 244 239 237 251 248 233 243 259 264 269 270 264 264 258 251 244 226 223 228 228 234 241 244 245 252 250 247
65 45 88 108 132 180 17 21 132 170 167 179 174 165 186 223 209 193 262 273 256 250 248 251 265 268 266 262 264 264 260 258 254 235 229 227 227 232 237 246 249 250 248 245
78 71 85 102 86 66 18 315 305 223 175 179 190 192 192 195 278 252 227 250 272 277 284 273 266 266 267 273 273 273 273 272 255 216 208 205 207 224 245 256 263 263 253 247
133 107 71 59 76 134 235 280 342 339 57 134 243 241 229 189 209 250 259 275 254 277 303 293 279 283 308 333 323 317 312 306 257 169 171 182 195 220 242 261 271 269 254 251
154 186 192 191 189 188 192 189 234 276 121 102 324 311 307 292 264 281 357 71 85 277 315 321 329 299 299 321 331 344 354 354 353 75 173 205 227 246 256 263 277 271 262 256
199 207 23 354 328 203 137 95 86 21 19 157 286 288 260 276 352 30 50 50 55 63 9 327 2 48 9 354 351 357 2 3 347 337 0 328 308 294 291 280 282 289 278 262